EW9776 Weather Reports


Display with metric or nautical units.
time (UTC)temp
F
wind
direction
speed
MPH
gust
MPH
rain 1hr
in
rain 24hr
in
rain mn
in
humidity
%
barometer
mb
20260903234535 56 94 1.0 7.0 0.00 2.80 0.00 81 1012.0
20260903233033 57 52 3.0 7.0 0.00 2.81 0.00 77 1012.0
20260903224535 59 32 5.0 9.0 0.00 2.83 0.00 70 1012.0
20260903223045 61 337 5.0 11.0 0.00 2.83 0.00 66 1011.9
20260903220032 63 352 5.0 13.0 0.00 2.83 0.00 62 1011.7
20260903213036 63 40 2.0 6.0 0.00 2.86 0.00 62 1011.7
20260903211537 63 14 2.0 6.0 0.00 2.89 0.00 61 1011.8
20260903210035 63 5 2.0 8.0 0.00 2.89 0.00 62 1011.9
20260903204532 62 7 2.0 7.0 0.00 2.92 0.00 66 1011.9
20260903203034 61 353 3.0 9.0 0.00 2.92 0.00 69 1012.0
20260903201610 63 23 3.0 8.0 0.00 2.95 0.00 68 1012.2
20260903193153 62 16 3.0 8.0 0.00 2.95 0.00 71 1012.6
20260903190035 57 238 1.0 5.0 0.00 2.96 0.00 81 1013.0
20260903184534 56 318 2.0 6.0 0.00 2.96 0.00 83 1013.1
20260903174531 56 328 2.0 6.0 0.00 2.96 0.00 81 1013.1
20260903173035 56 52 1.0 6.0 0.00 2.96 0.00 87 1013.1
20260903171610 52 92 0.0 2.0 0.00 2.96 0.00 93 1013.1
20260903170036 50 326 2.0 5.0 0.00 2.96 0.00 94 1013.2
20260903161532 50 105 1.0 4.0 0.00 2.96 0.00 95 1013.2
20260903160043 50 313 0.0 3.0 0.00 2.96 0.00 96 1013.1
20260903154530 49 284 1.0 5.0 0.00 2.96 0.00 97 1013.1
20260903153110 49 16 1.0 7.0 0.00 2.96 0.00 97 1013.1
20260903151534 49 87 1.0 5.0 0.00 2.96 0.00 98 1013.2
20260903150035 49 83 0.0 4.0 0.00 2.96 0.00 98 1013.0
20260903144536 48 90 0.0 0.0 0.00 2.96 0.00 98 1012.9
20260903143033 47 120 0.0 2.0 0.00 2.96 0.00 98 1012.9
20260903141533 46 197 2.0 4.0 0.00 2.96 0.00 98 1012.7
20260903134535 46 177 3.0 4.0 0.00 2.96 0.00 98 1012.5
20260903133036 46 111 0.0 5.0 0.00 2.96 0.00 98 1012.5
20260903131610 46 307 1.0 5.0 0.00 2.96 0.00 98 1012.3
20260903130035 46 180 2.0 4.0 0.00 2.96 0.00 98 1012.2
20260903123037 45 180 0.0 2.0 0.00 2.96 0.00 97 1012.3
20260903121535 46 180 1.0 4.0 0.00 2.96 0.00 97 1012.3
20260903120109 47 175 2.0 4.0 0.00 2.96 0.00 97 1012.3
20260903111536 45 169 1.0 4.0 0.00 2.96 0.00 94 1012.2
20260903110035 45 180 2.0 4.0 0.00 2.96 0.00 94 1012.1
20260903103032 47 103 2.0 5.0 0.00 2.96 0.00 91 1011.9
20260903101535 48 186 2.0 4.0 0.00 2.96 0.00 90 1011.8
20260903100036 49 188 3.0 5.0 0.00 2.96 0.00 91 1011.9
20260903094532 49 181 3.0 4.0 0.00 2.96 0.00 90 1012.0
20260903093031 50 183 2.0 4.0 0.00 2.96 0.00 89 1012.0
20260903090035 50 187 4.0 7.0 0.00 2.96 0.00 86 1012.0
20260903084534 51 184 4.0 7.0 0.00 2.96 0.00 86 1012.1
20260903083036 50 218 3.0 5.0 0.00 2.96 0.00 87 1012.0
20260903081535 50 211 3.0 6.0 0.00 2.96 0.00 88 1011.8
20260903080035 50 197 3.0 6.0 0.00 2.96 0.00 89 1011.8
20260903074536 49 199 3.0 5.0 0.00 2.96 0.00 90 1011.7
20260903073035 49 201 4.0 7.0 0.00 2.96 0.00 91 1011.4
20260903070035 49 282 1.0 6.0 0.00 2.96 0.00 87 1011.5
20260903064608 51 211 4.0 6.0 0.00 2.96 2.96 85 1011.5
20260903063034 51 217 4.0 7.0 0.00 2.96 2.96 87 1011.6
20260903061535 50 220 3.0 7.0 0.00 2.96 2.96 89 1011.6
20260903060110 51 265 0.0 5.0 0.00 2.96 2.96 84 1011.6
20260903054533 52 214 5.0 13.0 0.00 2.96 2.96 83 1011.5
20260903053035 53 165 6.0 13.0 0.00 2.96 2.96 82 1011.4
20260903050036 53 183 5.0 11.0 0.00 2.96 2.96 82 1011.3
20260903044535 53 213 6.0 12.0 0.00 2.96 2.96 83 1011.1
20260903043034 53 214 8.0 16.0 0.00 2.96 2.96 84 1010.9
20260903041608 53 219 6.0 11.0 0.00 2.96 2.96 86 1010.7
20260903040034 54 222 6.0 15.0 0.00 2.96 2.96 86 1010.4
20260903034532 54 219 7.0 14.0 0.01 2.96 2.96 86 1010.4
20260903033036 55 228 6.0 11.0 0.04 2.96 2.96 91 1010.3
20260903023035 56 83 0.0 5.0 0.14 2.92 2.84 96 1009.9
20260903020035 56 290 2.0 4.0 0.06 2.84 2.78 96 1009.7
20260903014536 56 87 0.0 3.0 0.03 2.78 2.78 96 1009.4
20260903013111 56 142 0.0 2.0 0.04 2.78 2.78 96 1009.4
20260903011535 56 68 0.0 3.0 0.04 2.78 2.78 96 1009.5
20260903010033 56 43 1.0 4.0 2.62 2.78 2.75 95 1009.6
20260903004536 56 26 2.0 4.0 2.59 2.75 2.74 95 1009.6
20260903003037 57 6 3.0 5.0 2.59 2.74 2.74 95 1009.6
20260903001529 57 353 2.0 4.0 2.59 2.74 0.16 95 1009.6
20260903000035 57 357 2.0 4.0 0.01 0.16 0.16 95 1009.5